Location: Eppenbrunn
(49.1158°N, 7.5601°E)
Time: 12:49:38
(UTC+00:00)

IRIDIUM 114 - Visible Passes

Search period start: 06 August 2020 00:00
Search period end: 16 August 2020 00:00
Orbit: 776 x 779 km, 86.4° (Epoch: 05 August)

Date Brightness Start Highest point End Pass type
(mag) Time Alt. Az. Time Alt. Az. Time Alt. Az.
06 Aug 5.3 20:43:28 10° SSW 20:48:29 47° W 20:53:33 10° N visible
07 Aug 4.5 20:09:39 10° S 20:14:52 81° W 20:20:08 10° N visible
07 Aug 7.1 21:54:14 10° W 21:56:30 13° WNW 21:58:48 10° NW visible
08 Aug 4.4 19:36:15 10° SSE 19:41:22 60° E 19:46:31 10° N visible
08 Aug 6.7 21:18:37 10° WSW 21:22:33 21° WNW 21:26:29 10° NNW visible
09 Aug 5.9 20:43:59 10° SW 20:48:43 34° WNW 20:53:29 10° NNW visible
10 Aug 5.0 20:09:53 10° SSW 20:15:01 58° W 20:20:11 10° N visible
11 Aug 4.3 19:36:14 10° S 19:41:26 83° E 19:46:41 10° N visible
11 Aug 7.0 21:19:48 10° WSW 21:22:54 16° WNW 21:26:00 10° NNW visible
12 Aug 6.5 20:44:41 10° SW 20:48:59 26° WNW 20:53:19 10° NNW visible
13 Aug 5.6 20:10:16 10° SSW 20:15:13 42° W 20:20:10 10° N visible
14 Aug 4.6 19:36:21 10° S 19:41:33 72° W 19:46:47 10° N visible
14 Aug 7.3 21:21:39 10° W 21:23:18 11° WNW 21:24:57 10° NW visible
15 Aug 7.0 20:45:37 10° WSW 20:49:18 19° WNW 20:53:00 10° NNW visible
